Location: Brighton Point
(40.6144°N, 111.7933°W)
Time: 12:55:02
(UTC+00:00)

Hubble Space Telescope - Pass Details

Date: 06 March 2021
Orbit: 535 x 539 km, 28.5° (Epoch: 10 April)

Event Time Altitude Azimuth Distance (km) Brightness Sun altitude
Rises 02:41:16 0° 220° (SW) 2,660 4.8 -15.6°
Reaches altitude 10° 02:45:03 10° 185° (S) 1,773 3.4 -16.3°
Maximum altitude 02:46:18 11° 167° (SSE) 1,699 3.1 -16.5°
Enters shadow 02:46:49 11° 160° (SSE) 1,713 3.1 -16.6°
